Hourly Data Report for October 03, 2017

All times are specified in Local Standard Time (LST). Add 1 hour to adjust for Daylight Saving Time where and when it is observed.

CARIBOU POINT (AUT)
NOVA SCOTIA

45°46'00.000" N
62°41'00.000" W
2.40 m
8200774
71415
WBK

Download Data

Hourly Data (October 2017)
Hourly Data Report for October 3, 2017
Temp Definition
°C
Dew Point Temp Definition
°C
Rel Hum Definition
%
Wind Dir Definition
10's deg

Wind Spd Definition
km/h
Visibility Definition
km
Stn Press Definition
kPa
Hmdx Definition


Wind Chill Definition


Weather Definition


TIME
00:00 10.6 4.6 66 1 22   103.17     LegendNANA
01:00 10.8 4.9 67 36 24   103.22     LegendNANA
02:00 10.8 4.8 66 36 23   103.28     LegendNANA
03:00 10.9 4.5 64 36 23   103.30     LegendNANA
04:00 11.0 5.3 68 35 20   103.35     LegendNANA
05:00 11.3 3.6 59 36 27   103.40     LegendNANA
06:00 11.2 4.9 65 35 23   103.44     LegendNANA
07:00 11.3 5.7 69 35 27   103.49     LegendNANA
08:00 11.7 5.4 65 34 26   103.50     LegendNANA
09:00 12.2 5.6 64 34 21   103.55     LegendNANA
10:00 12.5 5.4 62 32 22   103.54     LegendNANA
11:00 12.3 5.1 61 32 22   103.51     LegendNANA
12:00 13.2 5.5 60 30 22   103.50     LegendNANA
13:00 13.4 5.8 60 31 28   103.47     LegendNANA
14:00 13.1 5.6 60 31 26   103.47     LegendNANA
15:00 12.7 6.9 68 30 25   103.36     LegendNANA
16:00 12.2 6.7 69 29 21   103.22     LegendNANA
17:00 11.4 5.9 69 26 13   103.22     LegendNANA
18:00 10.6 6.0 73 25 9   103.20     LegendNANA
19:00 10.2 6.0 75 24 6   103.17     LegendNANA
20:00 9.8 6.4 80 23 6   103.16     LegendNANA
21:00 9.2 6.0 80 24 9   103.09     LegendNANA
22:00 8.4 5.6 83 24 9   103.00     LegendNANA
23:00 8.5 5.5 82 22 12   102.98     LegendNANA

Notes on Data Quality.

Legend

  • E = Estimated
  • M = Missing
  • NA = Not Available
  • ‡ = Partner data that is not subject to review by the National Climate Archives
Date modified: